Flag for Australia Weather past 2 weeks in Lord Howe Island, Lord Howe Island, Australia

Now
67 °F

Overcast.


Feels Like: 67 °F
Forecast: 67 / 69 °F
Wind: 8 mph from North

Location: Lord Howe Island

Current Time: Jul 31, 2014 at 10:49:52 PM

Latest Report: Jul 31, 2014 at 9:00 PM


Visibility: N/A

Pressure: 30.08 "Hg

Humidity: 72%

Dew point: 58 °F

Location of Lord Howe IslandLocation

Historic Weather in Lord Howe Island — Graph

°F

Lord Howe Island temperature yesterday

Maximum temperature yesterday: 68 °F (at 12:00 PM)
Minimum temperature yesterday: 63 °F (at 6:00 PM)
Average temperature yesterday: 65 °F

Past Weeks' High & Low Weather Summary

 TemperatureHumidityPressure
High71 °F (Jul 31, 10:30 AM)97% (Jul 27, 4:30 AM)30.39 "Hg (Jul 27, 4:30 AM)
Low51 °F (Jul 23, 10:30 PM)46% (Jul 21, 12:00 PM)29.61 "Hg (Jul 18, 3:00 PM)
Average62 °F69%30.08 "Hg
* Reported Jul 16 9:00 PM — Jul 31 9:00 PM, Lord Howe Island, Weather by CustomWeather, © 2014

Note: Actual official high and low records may vary slightly from our data, if they occured in-between our weather recording intervals... More about our weather records

Advertising

Lord Howe Island weather history for previous 24 hours

 ConditionsComfort  
Time TempWeatherWind HumidityBarometerVisibility
9:00 PM
Jul 31
67 °FOvercast.8 mph72%30.08 "HgN/A
7:30 PM67 °FMild.6 mph72%30.08 "HgN/A
6:00 PM67 °FOvercast.7 mph68%30.07 "HgN/A
4:30 PM69 °FMild.8 mph70%30.07 "HgN/A
3:00 PM71 °FPassing clouds.8 mph64%30.07 "Hg17 mi
1:30 PM71 °FMild.9 mph68%30.09 "HgN/A
12:00 PM71 °FScattered clouds.9 mph66%30.14 "Hg16 mi
10:30 AM71 °FMild.9 mph61%30.18 "HgN/A
9:00 AM69 °FScattered clouds.7 mph62%30.18 "Hg19 mi
7:30 AM66 °FMild.5 mph69%30.17 "HgN/A
6:00 AM64 °FPassing clouds.5 mph74%30.16 "Hg19 mi
4:30 AM65 °FMild.8 mph69%30.14 "HgN/A
3:00 AM65 °FMild.10 mph67%30.13 "HgN/A
1:30 AM65 °FMild.6 mph68%30.14 "HgN/A
12:00 AM65 °FMild.7 mph66%30.15 "HgN/A
10:30 PM
Jul 30
64 °FMild.5 mph71%30.15 "HgN/A
Weather by CustomWeather, © 2014

See weather overviewHow to use our weather pages